CDT,Max TemperatureF,Mean TemperatureF,Min TemperatureF,Max Dew PointF,MeanDew PointF,Min DewpointF,Max Humidity, Mean Humidity, Min Humidity, Max Sea Level PressureIn, Mean Sea Level PressureIn, Min Sea Level PressureIn, Max VisibilityMiles, Mean VisibilityMiles, Min VisibilityMiles, Max Wind SpeedMPH, Mean Wind SpeedMPH, Max Gust SpeedMPH,PrecipitationIn, CloudCover, Events, WindDirDegrees
2012-10-1,64,52,39,47,43,38,97,72,43,29.94,29.89,29.82,10.0,10.0,7.0,10,3,,0.00,0,,69
2012-10-2,68,59,50,55,47,39,85,63,37,29.91,29.85,29.80,10.0,9.9,5.0,15,7,20,0.00,5,Rain,45
2012-10-3,59,58,56,58,56,55,99,95,90,30.06,29.98,29.90,10.0,5.1,1.8,9,5,,0.02,8,Rain,179
2012-10-4,79,66,52,56,53,48,99,74,33,30.12,30.07,30.00,10.0,8.9,4.0,24,7,33,0.04,4,Rain,233
2012-10-5,52,46,40,48,39,30,90,79,57,30.15,30.10,30.04,10.0,10.0,10.0,10,6,,0.02,5,Rain,256
2012-10-6,47,39,32,33,30,27,84,66,50,30.16,30.11,30.04,10.0,10.0,10.0,16,7,24,0.00,6,,270
2012-10-7,46,36,25,37,29,22,89,65,45,30.17,30.14,30.11,10.0,9.9,7.0,16,7,23,0.00,6,Rain,283
2012-10-8,56,38,21,30,24,19,93,59,26,30.20,30.14,30.06,10.0,9.9,4.0,15,4,22,0.00,2,,202
2012-10-9,64,51,39,45,35,28,95,56,34,30.07,29.95,29.85,10.0,9.7,5.0,23,10,31,0.09,1,Rain,212
2012-10-10,49,41,30,43,31,22,97,70,36,30.19,30.06,29.91,10.0,9.6,5.0,22,9,31,0.06,4,Rain,276
2012-10-11,62,45,28,44,31,25,93,62,29,30.22,30.16,30.08,10.0,10.0,10.0,24,7,32,0.00,1,,235
2012-10-12,53,43,33,40,29,20,87,59,28,30.44,30.36,30.24,10.0,9.4,0.5,15,8,20,0.00,2,Rain,70
2012-10-13,64,50,35,62,44,25,99,77,52,30.29,30.06,29.85,10.0,7.1,3.0,17,7,24,0.25,7,Rain,178
2012-10-14,71,60,48,62,57,46,99,87,60,29.85,29.65,29.47,10.0,7.7,2.5,29,13,41,0.40,7,Rain,219
2012-10-15,52,43,34,46,40,33,97,82,58,29.99,29.89,29.77,10.0,9.3,2.5,15,7,26,0.00,5,,302
2012-10-16,64,48,32,47,39,32,100,70,44,29.99,29.82,29.64,10.0,8.6,2.0,16,5,25,0.00,1,Snow,168
2012-10-17,69,61,53,55,50,46,97,75,46,29.65,29.55,29.38,10.0,9.4,4.0,18,10,34,0.35,4,Rain-Thunderstorm,182
2012-10-18,56,50,43,55,42,31,96,79,40,29.60,29.47,29.35,10.0,9.6,5.0,25,13,37,0.08,6,Rain,220
2012-10-19,49,45,41,46,43,40,98,93,77,29.63,29.53,29.48,10.0,8.9,2.0,12,6,,0.17,7,Rain,217
2012-10-20,55,46,36,44,39,35,99,81,51,29.96,29.80,29.63,10.0,9.1,4.0,13,7,18,0.00,4,,259
2012-10-21,65,48,31,47,41,31,100,79,50,30.09,30.03,29.96,10.0,7.6,0.2,9,3,,0.00,0,Fog,154
2012-10-22,66,56,45,60,53,43,96,86,61,30.03,29.98,29.91,10.0,9.8,5.0,14,3,21,0.04,5,Rain-Thunderstorm,176
2012-10-23,66,61,56,62,58,54,99,91,74,29.98,29.95,29.91,10.0,8.7,2.5,15,5,21,0.05,6,Rain-Thunderstorm,201
2012-10-24,77,68,58,61,59,55,100,76,55,30.01,29.96,29.92,10.0,10.0,10.0,14,6,22,0.00,2,,194
2012-10-25,76,61,46,59,56,46,95,70,52,30.01,29.86,29.77,10.0,9.5,4.0,22,12,36,0.24,4,Rain-Thunderstorm,204
2012-10-26,46,43,40,45,34,31,94,70,58,30.29,30.22,30.02,10.0,9.9,7.0,18,14,34,0.04,5,Rain,350
2012-10-27,47,42,36,36,32,30,83,70,56,30.28,30.24,30.20,10.0,10.0,10.0,22,8,34,0.00,5,,16
2012-10-28,46,40,33,32,28,22,89,62,43,30.26,30.22,30.19,10.0,10.0,10.0,18,10,25,0.00,3,,24
2012-10-29,48,41,34,34,29,24,81,58,44,30.21,30.14,29.91,10.0,10.0,10.0,32,16,45,0.00,2,,7
2012-10-30,44,42,39,39,36,28,92,80,56,29.90,29.73,29.68,10.0,6.8,1.5,39,28,52,0.12,7,Rain,348
2012-10-31,43,40,37,37,36,30,95,86,65,29.81,29.76,29.70,10.0,6.1,2.0,23,16,30,0.01,8,Rain,320